STARLINK-35553 (66120 NORAD) Tracking and Keplerian Element Data

This shows tracking and keplerian element data for the satellite.

Feedback or suggestion? Click here.




ElementValue
Catalog66120
NameSTARLINK-35553
Epoch Orbit1038
Epoch Day354.1553004
Epoch Year2025
RAAN52.5933
Inclination53.1613
Eccentricity0.0001512
Argument of Perigee81.642
Mean Anonmoly278.4757
Mean Motion15.39632351
Decay Rate0.00018853
L11 66120U 25237G 25354.15530040 .00018853 00000+0 47994-3 0 9991
L22 66120 53.1613 52.5933 0001512 81.6420 278.4757 15.39632351 10383



Live tracking and technical data element details for STARLINK-35553 (NORAD 66120). STARLINK-35553 can be tracked NOW for your location showing map with azimuth and elevation plus other details from your city location.







IsCatalogInMostPopularTable: catalog: 66120, numindb: 3
Update: records affected: 1



GetName: 66120 STARLINK-35553

Hit Count: updated at: Mon, 09 Feb 2026 08:12:24 GMT